FW7405 Weather Reports


Display with metric or nautical units.
time (UTC)temp
F
wind
direction
speed
MPH
gust
MPH
rain 1hr
in
rain 24hr
in
rain mn
in
humidity
%
barometer
mb
20220928122417 41 337 0.0 1.0 0.00 0.00 0.00 90 1026.5
20220928121916 41 328 0.0 0.0 0.00 0.00 0.00 91 1026.5
20220928121414 41 345 0.0 1.0 0.00 0.00 0.00 91 1026.5
20220928120913 40 345 1.0 1.0 0.00 0.00 0.00 92 1026.5
20220928120413 40 308 2.0 3.0 0.00 0.00 0.00 92 1026.1
20220928115913 40 329 2.0 3.0 0.00 0.00 0.00 92 1026.1
20220928115411 40 338 0.0 1.0 0.00 0.00 0.00 92 1026.1
20220928114910 40 329 0.0 1.0 0.00 0.00 0.00 92 1026.1
20220928114409 40 326 2.0 3.0 0.00 0.00 0.00 92 1026.1
20220928113909 40 320 0.0 0.0 0.00 0.00 0.00 92 1026.1
20220928113404 40 322 1.0 1.0 0.00 0.00 0.00 92 1026.1
20220928112904 40 316 1.0 1.0 0.00 0.00 0.00 92 1025.8
20220928112403 40 337 0.0 0.0 0.00 0.00 0.00 92 1025.8
20220928111901 39 314 0.0 1.0 0.00 0.00 0.00 92 1025.8
20220928111401 39 330 0.0 0.0 0.00 0.00 0.00 92 1025.8
20220928110901 39 328 0.0 0.0 0.00 0.00 0.00 92 1025.8
20220928110400 39 328 0.0 1.0 0.00 0.00 0.00 92 1025.5
20220928105900 39 328 0.0 0.0 0.00 0.00 0.00 92 1025.5
20220928105359 40 327 0.0 0.0 0.00 0.00 0.00 92 1025.5
20220928104859 39 328 0.0 0.0 0.00 0.00 0.00 92 1025.5
20220928104359 39 326 0.0 1.0 0.00 0.00 0.00 92 1025.5
20220928103859 40 326 0.0 0.0 0.00 0.00 0.00 91 1025.5
20220928103357 40 326 0.0 0.0 0.00 0.00 0.00 91 1025.5
20220928102856 40 326 0.0 0.0 0.00 0.00 0.00 91 1025.5
20220928102354 40 325 0.0 1.0 0.00 0.00 0.00 91 1025.1
20220928101854 40 320 0.0 0.0 0.00 0.00 0.00 91 1025.1
20220928101354 40 320 0.0 0.0 0.00 0.00 0.00 91 1025.1
20220928100853 40 320 0.0 0.0 0.00 0.00 0.00 91 1025.1
20220928100354 40 308 0.0 0.0 0.00 0.00 0.00 91 1025.1
20220928095853 41 315 0.0 0.0 0.00 0.00 0.00 90 1025.1
20220928095352 41 314 0.0 0.0 0.00 0.00 0.00 90 1025.1
20220928094850 41 311 0.0 0.0 0.00 0.00 0.00 90 1025.1
20220928094350 41 325 0.0 1.0 0.00 0.00 0.00 90 1024.7
20220928093849 41 325 0.0 0.0 0.00 0.00 0.00 90 1024.7
20220928093349 41 325 0.0 0.0 0.00 0.00 0.00 90 1024.7
20220928092845 41 319 0.0 1.0 0.00 0.00 0.00 90 1024.3
20220928092343 41 322 1.0 1.0 0.00 0.00 0.00 91 1024.3
20220928091841 41 315 0.0 0.0 0.00 0.00 0.00 91 1024.3
20220928091341 41 316 0.0 1.0 0.00 0.00 0.00 91 1024.3
20220928090840 41 308 0.0 0.0 0.00 0.00 0.00 91 1024.3
20220928090340 41 325 0.0 0.0 0.00 0.00 0.00 92 1024.3
20220928085839 41 326 0.0 0.0 0.00 0.00 0.00 92 1024.3
20220928085339 41 325 0.0 0.0 0.00 0.00 0.00 93 1024.3
20220928084840 40 310 0.0 0.0 0.00 0.00 0.00 93 1024.7
20220928084339 40 305 0.0 0.0 0.00 0.00 0.00 93 1024.3
20220928083837 40 322 1.0 1.0 0.00 0.00 0.00 93 1024.3
20220928083336 40 320 0.0 1.0 0.00 0.00 0.00 93 1024.3
20220928082835 40 310 0.0 0.0 0.00 0.00 0.00 93 1024.3
20220928082335 40 287 0.0 0.0 0.00 0.00 0.00 93 1024.3
20220928081834 40 287 0.0 0.0 0.00 0.00 0.00 93 1024.3
20220928081334 40 287 0.0 0.0 0.00 0.00 0.00 93 1024.3
20220928080833 40 287 0.0 0.0 0.00 0.00 0.00 93 1024.3
20220928080332 40 282 0.0 0.0 0.00 0.00 0.00 93 1024.3
20220928075832 40 292 0.0 0.0 0.00 0.00 0.00 93 1024.0
20220928075332 40 292 0.0 0.0 0.00 0.00 0.00 93 1024.0
20220928074832 40 290 0.0 0.0 0.00 0.00 0.00 93 1024.0
20220928074332 39 303 0.0 0.0 0.00 0.00 0.00 93 1024.0
20220928073830 39 304 0.0 0.0 0.00 0.00 0.00 93 1024.0
20220928073328 39 303 0.0 0.0 0.00 0.00 0.00 93 1024.0
20220928072828 39 304 0.0 0.0 0.00 0.00 0.00 93 1023.7
20220928072326 39 306 0.0 0.0 0.00 0.00 0.00 92 1024.0
20220928071826 39 306 0.0 0.0 0.00 0.00 0.00 92 1023.7
20220928071324 39 306 0.0 0.0 0.00 0.00 0.00 92 1024.0
20220928070824 40 306 0.0 0.0 0.00 0.00 0.00 92 1023.7
20220928070324 40 306 0.0 0.0 0.00 0.00 0.00 92 1023.7
20220928065823 40 306 0.0 0.0 0.00 0.00 0.00 92 1023.7
20220928065323 39 306 0.0 0.0 0.00 0.00 0.00 91 1023.7
20220928064821 40 306 0.0 0.0 0.00 0.00 0.00 91 1023.7
20220928064319 40 306 0.0 0.0 0.00 0.00 0.00 91 1023.7
20220928063817 40 306 0.0 0.0 0.00 0.00 0.00 91 1023.7
20220928063316 40 306 0.0 0.0 0.00 0.00 0.00 91 1023.7
20220928062815 40 306 0.0 0.0 0.00 0.00 0.00 91 1023.7
20220928062314 40 306 0.0 0.0 0.00 0.00 0.00 91 1023.7
20220928061814 40 306 0.0 0.0 0.00 0.00 0.00 91 1023.7
20220928061313 40 306 0.0 0.0 0.00 0.00 0.00 91 1023.3
20220928060812 40 306 0.0 0.0 0.00 0.00 0.00 90 1023.3
20220928060310 40 306 0.0 0.0 0.00 0.00 0.00 90 1023.3
20220928055809 40 306 0.0 0.0 0.00 0.00 0.00 90 1023.3
20220928055309 40 306 0.0 0.0 0.00 0.00 0.00 90 1023.3
20220928054808 40 306 0.0 0.0 0.00 0.00 0.00 90 1023.3
20220928054308 40 306 0.0 0.0 0.00 0.00 0.00 90 1023.3
20220928053807 40 306 0.0 0.0 0.00 0.00 0.00 90 1023.3
20220928053307 41 306 0.0 0.0 0.00 0.00 0.00 89 1023.3
20220928052806 41 306 0.0 0.0 0.00 0.00 0.00 89 1023.3
20220928052305 41 306 0.0 0.0 0.00 0.00 0.00 89 1023.0
20220928051804 41 306 0.0 0.0 0.00 0.00 0.00 89 1023.3
20220928051303 41 306 0.0 0.0 0.00 0.00 0.00 88 1023.3
20220928050802 41 306 0.0 0.0 0.00 0.00 0.00 88 1023.3
20220928050301 41 306 0.0 0.0 0.00 0.00 0.00 87 1023.0
20220928045801 42 306 0.0 0.0 0.00 0.00 0.00 86 1023.3
20220928045302 42 306 0.0 0.0 0.00 0.00 0.00 85 1023.0
20220928044800 42 306 0.0 0.0 0.00 0.00 0.00 84 1023.3
20220928044300 43 306 0.0 0.0 0.00 0.00 0.00 83 1023.0
20220928043800 43 316 0.0 0.0 0.00 0.00 0.00 80 1023.0
20220928043258 44 324 0.0 0.0 0.00 0.00 0.00 78 1023.0
20220928042757 44 324 0.0 0.0 0.00 0.00 0.00 78 1023.0
20220928042255 44 324 0.0 0.0 0.00 0.00 0.00 78 1023.0
20220928041753 44 310 1.0 1.0 0.00 0.00 0.00 78 1023.0
20220928041251 44 333 0.0 0.0 0.00 0.00 0.00 78 1023.0
20220928040750 43 11 0.0 0.0 0.00 0.00 0.00 80 1022.6
20220928040250 43 11 0.0 0.0 0.00 0.00 0.00 83 1022.6
20220928035749 42 11 0.0 0.0 0.00 0.00 0.00 82 1022.6
20220928035249 42 11 0.0 0.0 0.00 0.00 0.00 82 1022.6
20220928034748 42 11 0.0 0.0 0.00 0.00 0.00 82 1022.6
20220928034248 43 12 0.0 0.0 0.00 0.00 0.00 82 1022.6
20220928033747 43 11 0.0 0.0 0.00 0.00 0.00 82 1022.3
20220928033247 43 11 0.0 0.0 0.00 0.00 0.00 81 1022.3
20220928032747 44 11 0.0 0.0 0.00 0.00 0.00 80 1022.0
20220928032246 44 11 0.0 0.0 0.00 0.00 0.00 79 1022.0
20220928031746 45 12 0.0 0.0 0.00 0.00 0.00 76 1022.3
20220928031245 46 12 0.0 0.0 0.00 0.00 0.00 72 1022.0
20220928030744 46 12 0.0 0.0 0.00 0.00 0.00 70 1022.0
20220928030244 46 3 0.0 0.0 0.00 0.00 0.00 71 1022.0
20220928025745 46 353 0.0 1.0 0.00 0.00 0.00 72 1022.0
20220928025243 46 347 0.0 0.0 0.00 0.00 0.00 72 1021.6
20220928024743 47 347 0.0 0.0 0.00 0.00 0.00 70 1021.6
20220928024243 47 347 0.0 0.0 0.00 0.00 0.00 68 1021.6
20220928023742 46 6 1.0 1.0 0.00 0.00 0.00 68 1021.6
20220928023241 46 6 0.0 0.0 0.00 0.00 0.00 67 1021.3
20220928022740 47 6 0.0 0.0 0.00 0.00 0.00 67 1021.3
20220928022240 47 6 0.0 0.0 0.00 0.00 0.00 66 1021.3
20220928021739 48 6 0.0 0.0 0.00 0.00 0.00 64 1021.3
20220928021237 48 6 0.0 0.0 0.00 0.00 0.00 63 1021.0
20220928020733 48 7 0.0 0.0 0.00 0.00 0.00 62 1021.0
20220928020231 48 5 1.0 1.0 0.00 0.00 0.00 62 1021.0
20220928015731 49 348 1.0 1.0 0.00 0.00 0.00 61 1021.0
20220928015229 49 15 0.0 0.0 0.00 0.00 0.00 60 1021.0
20220928014729 50 15 0.0 0.0 0.00 0.00 0.00 59 1021.0
20220928014230 50 18 0.0 0.0 0.00 0.00 0.00 58 1021.0
20220928013728 50 13 0.0 0.0 0.00 0.00 0.00 57 1020.5
20220928013228 50 13 0.0 0.0 0.00 0.00 0.00 57 1020.5
20220928012727 51 352 0.0 0.0 0.00 0.00 0.00 56 1020.5
20220928012226 51 354 0.0 1.0 0.00 0.00 0.00 55 1020.2
20220928011724 51 1 0.0 0.0 0.00 0.00 0.00 55 1020.2
20220928011223 51 33 0.0 3.0 0.00 0.00 0.00 54 1020.2
20220928010723 52 349 1.0 1.0 0.00 0.00 0.00 53 1020.2
20220928010222 52 348 1.0 1.0 0.00 0.00 0.00 52 1019.8
20220928005720 52 352 1.0 1.0 0.00 0.00 0.00 52 1019.8
20220928005220 51 338 1.0 1.0 0.00 0.00 0.00 53 1019.8
20220928004720 50 326 1.0 1.0 0.00 0.00 0.00 56 1019.8
20220928004219 49 304 0.0 0.0 0.00 0.00 0.00 59 1019.8
20220928003719 50 297 0.0 0.0 0.00 0.00 0.00 60 1019.8
20220928003219 50 297 0.0 0.0 0.00 0.00 0.00 59 1019.5
20220928002718 51 297 0.0 0.0 0.00 0.00 0.00 57 1019.5
20220928002217 51 297 0.0 0.0 0.00 0.00 0.00 54 1019.5
20220928001716 53 283 0.0 0.0 0.00 0.00 0.00 54 1019.5
20220928001216 54 314 0.0 0.0 0.00 0.00 0.00 48 1019.5
20220928000714 55 318 0.0 0.0 0.00 0.00 0.00 45 1019.5
20220928000212 56 322 2.0 3.0 0.00 0.00 0.00 43 1019.2
20220927235711 56 336 2.0 3.0 0.00 0.00 0.00 42 1019.2
20220927235211 57 330 1.0 1.0 0.00 0.00 0.00 41 1019.2
20220927234710 57 315 1.0 1.0 0.00 0.00 0.00 40 1019.2
20220927234209 57 329 2.0 3.0 0.00 0.00 0.00 39 1019.2
20220927233710 58 4 2.0 3.0 0.00 0.00 0.00 38 1019.2
20220927233208 58 21 5.0 6.0 0.00 0.00 0.00 37 1019.2
20220927232708 59 357 6.0 7.0 0.00 0.00 0.00 36 1019.2
20220927232208 59 334 5.0 7.0 0.00 0.00 0.00 36 1019.2
20220927231706 59 347 2.0 3.0 0.00 0.00 0.00 37 1018.8
20220927231204 60 304 3.0 4.0 0.00 0.00 0.00 35 1018.8
20220927230702 60 319 4.0 6.0 0.00 0.00 0.00 35 1018.8
20220927230202 60 335 6.0 9.0 0.00 0.00 0.00 34 1018.8
20220927225701 60 352 7.0 9.0 0.00 0.00 0.00 33 1018.8
20220927225200 60 335 4.0 6.0 0.00 0.00 0.00 34 1018.5
20220927224659 61 323 4.0 6.0 0.00 0.00 0.00 35 1018.5
20220927224158 61 275 3.0 4.0 0.00 0.00 0.00 32 1018.5
20220927223658 61 302 8.0 10.0 0.00 0.00 0.00 32 1018.5
20220927223156 61 324 4.0 7.0 0.00 0.00 0.00 33 1018.5
20220927222656 61 353 8.0 10.0 0.00 0.00 0.00 32 1018.5
20220927222154 62 353 5.0 6.0 0.00 0.00 0.00 34 1018.5
20220927221653 62 350 9.0 11.0 0.00 0.00 0.00 32 1018.5
20220927221152 62 351 4.0 11.0 0.00 0.00 0.00 33 1018.1
20220927220650 62 359 6.0 10.0 0.00 0.00 0.00 34 1018.1
20220927220149 62 326 7.0 9.0 0.00 0.00 0.00 34 1018.1
20220927215649 62 7 9.0 16.0 0.00 0.00 0.00 34 1018.1
20220927215148 62 338 6.0 7.0 0.00 0.00 0.00 34 1018.1
20220927214647 63 341 9.0 16.0 0.00 0.00 0.00 34 1018.1
20220927214145 63 293 4.0 6.0 0.00 0.00 0.00 35 1018.1
20220927213644 63 355 9.0 10.0 0.00 0.00 0.00 34 1018.1
20220927213143 63 322 3.0 4.0 0.00 0.00 0.00 35 1017.8
20220927212643 64 288 7.0 10.0 0.00 0.00 0.00 34 1017.8
20220927212143 63 334 13.0 16.0 0.00 0.00 0.00 34 1018.1
20220927211643 63 342 11.0 14.0 0.00 0.00 0.00 34 1017.8
20220927211141 64 331 6.0 7.0 0.00 0.00 0.00 34 1017.8
20220927210639 64 10 4.0 7.0 0.00 0.00 0.00 34 1017.8
20220927210139 64 338 6.0 9.0 0.00 0.00 0.00 35 1017.8
20220927205638 64 349 8.0 10.0 0.00 0.00 0.00 34 1017.8
20220927205138 64 305 5.0 6.0 0.00 0.00 0.00 35 1017.8
20220927204637 64 326 9.0 16.0 0.00 0.00 0.00 35 1017.5
20220927204136 64 342 9.0 11.0 0.00 0.00 0.00 32 1017.5
20220927203635 64 352 7.0 10.0 0.00 0.00 0.00 33 1017.5
20220927203135 64 329 7.0 9.0 0.00 0.00 0.00 36 1017.5
20220927202634 65 320 3.0 4.0 0.00 0.00 0.00 36 1017.5
20220927202133 65 334 5.0 7.0 0.00 0.00 0.00 36 1017.5
20220927201632 64 338 4.0 6.0 0.00 0.00 0.00 39 1017.5
20220927201133 65 298 6.0 10.0 0.00 0.00 0.00 38 1017.5
20220927200632 64 18 7.0 10.0 0.00 0.00 0.00 38 1017.1
20220927200132 65 339 4.0 6.0 0.00 0.00 0.00 39 1017.5
20220927195630 64 291 3.0 6.0 0.00 0.00 0.00 40 1017.5
20220927195129 64 335 10.0 11.0 0.00 0.00 0.00 38 1017.5
20220927194628 65 327 8.0 14.0 0.00 0.00 0.00 37 1017.5
20220927194128 65 8 5.0 9.0 0.00 0.00 0.00 38 1017.5
20220927193628 65 4 11.0 13.0 0.00 0.00 0.00 38 1017.5
20220927193127 65 316 4.0 6.0 0.00 0.00 0.00 41 1017.5
20220927192627 64 318 9.0 11.0 0.00 0.00 0.00 37 1017.5
20220927192126 64 6 5.0 9.0 0.00 0.00 0.00 39 1017.5
20220927191625 64 356 10.0 17.0 0.00 0.00 0.00 38 1017.5
20220927191124 65 318 4.0 6.0 0.00 0.00 0.00 38 1017.5
20220927190625 65 325 9.0 10.0 0.00 0.00 0.00 39 1017.5
20220927190125 64 356 5.0 7.0 0.00 0.00 0.00 40 1017.5
20220927185625 64 337 6.0 9.0 0.00 0.00 0.00 41 1017.5
20220927185124 65 326 4.0 7.0 0.00 0.00 0.00 44 1017.5
20220927184624 64 271 3.0 4.0 0.00 0.00 0.00 44 1017.1
20220927184123 64 299 5.0 9.0 0.00 0.00 0.00 43 1017.5
20220927183624 63 295 6.0 10.0 0.00 0.00 0.00 43 1017.5
20220927183123 64 331 11.0 14.0 0.00 0.00 0.00 42 1017.5
20220927182622 64 231 8.0 11.0 0.00 0.00 0.00 44 1017.5
20220927182120 64 358 5.0 9.0 0.00 0.00 0.00 44 1017.5
20220927181620 63 345 4.0 7.0 0.00 0.00 0.00 46 1017.5
20220927181118 64 330 7.0 10.0 0.00 0.00 0.00 46 1017.8
20220927180617 63 200 4.0 6.0 0.00 0.00 0.00 47 1017.5
20220927180117 62 332 6.0 7.0 0.00 0.00 0.00 47 1017.8
20220927175616 62 336 3.0 4.0 0.00 0.00 0.00 47 1017.8
20220927175116 62 274 4.0 6.0 0.00 0.00 0.00 48 1017.8
20220927174615 62 290 4.0 7.0 0.00 0.00 0.00 48 1017.8
20220927174114 62 267 6.0 7.0 0.00 0.00 0.00 49 1017.8
20220927173614 62 355 9.0 10.0 0.00 0.00 0.00 49 1017.5
20220927173112 62 1 7.0 11.0 0.00 0.00 0.00 49 1017.8
20220927172612 61 303 2.0 3.0 0.00 0.00 0.00 52 1017.5
20220927172111 62 347 9.0 11.0 0.00 0.00 0.00 50 1017.8
20220927171610 61 316 3.0 6.0 0.00 0.00 0.00 51 1017.8
20220927171110 61 306 4.0 6.0 0.00 0.00 0.00 51 1017.5
20220927170610 60 285 2.0 3.0 0.00 0.00 0.00 53 1017.8
20220927170108 60 340 9.0 11.0 0.00 0.00 0.00 52 1017.5
20220927165607 60 314 3.0 13.0 0.00 0.00 0.00 53 1017.8
20220927165107 60 1 7.0 9.0 0.00 0.00 0.00 53 1017.8
20220927164605 60 332 7.0 9.0 0.00 0.00 0.00 53 1017.8
20220927164104 59 277 7.0 10.0 0.00 0.00 0.00 56 1017.8
20220927163604 59 299 3.0 4.0 0.00 0.00 0.00 55 1017.8
20220927163104 59 293 2.0 3.0 0.00 0.00 0.00 56 1017.8
20220927162604 59 2 8.0 10.0 0.00 0.00 0.00 57 1017.8
20220927162103 60 304 2.0 3.0 0.00 0.00 0.00 55 1017.8
20220927161603 59 320 3.0 4.0 0.00 0.00 0.00 59 1017.8
20220927161103 58 321 6.0 10.0 0.00 0.00 0.00 59 1017.8
20220927160602 57 334 4.0 7.0 0.00 0.00 0.00 63 1017.8
20220927160100 57 297 2.0 3.0 0.00 0.00 0.00 62 1017.8
20220927155600 56 9 2.0 4.0 0.00 0.00 0.00 64 1017.8
20220927155100 56 332 0.0 1.0 0.00 0.00 0.00 63 1017.8
20220927154558 56 11 3.0 4.0 0.00 0.00 0.00 64 1017.8
20220927154057 56 277 1.0 1.0 0.00 0.00 0.00 65 1017.5
20220927153557 56 275 3.0 4.0 0.00 0.00 0.00 64 1017.5
20220927153055 55 321 2.0 3.0 0.00 0.00 0.00 66 1017.5
20220927152555 55 310 2.0 3.0 0.00 0.00 0.00 66 1017.5
20220927152055 55 304 3.0 4.0 0.00 0.00 0.00 66 1017.1
20220927151555 55 251 2.0 3.0 0.00 0.00 0.00 67 1016.8
20220927151054 55 300 2.0 3.0 0.00 0.00 0.00 67 1016.8
20220927150553 55 257 2.0 3.0 0.00 0.00 0.00 66 1016.8
20220927150052 55 21 6.0 9.0 0.00 0.00 0.00 65 1016.8
20220927145552 54 237 1.0 3.0 0.00 0.00 0.00 69 1016.8
20220927145051 53 222 1.0 1.0 0.00 0.00 0.00 71 1016.5
20220927144549 52 288 2.0 3.0 0.00 0.00 0.00 70 1016.5
20220927144049 51 293 1.0 1.0 0.00 0.00 0.00 72 1016.5
20220927143548 51 328 1.0 3.0 0.00 0.00 0.00 71 1016.5
20220927143047 51 269 1.0 3.0 0.00 0.00 0.00 72 1016.5
20220927142547 51 288 3.0 4.0 0.00 0.00 0.00 72 1016.5
20220927142047 51 288 1.0 3.0 0.00 0.00 0.00 72 1016.5
20220927141546 50 292 1.0 1.0 0.00 0.00 0.00 72 1016.5
20220927141046 51 254 1.0 3.0 0.00 0.00 0.00 73 1016.5
20220927140544 50 293 1.0 1.0 0.00 0.00 0.00 75 1016.5
20220927140043 50 278 2.0 3.0 0.00 0.00 0.00 72 1016.5
20220927135542 49 273 0.0 1.0 0.00 0.00 0.00 73 1016.5
20220927135040 50 292 2.0 3.0 0.00 0.00 0.00 72 1016.5
20220927134540 50 264 3.0 4.0 0.00 0.00 0.00 71 1016.5
20220927134038 49 320 4.0 4.0 0.00 0.00 0.00 72 1016.5
20220927133538 49 205 4.0 6.0 0.00 0.00 0.00 74 1016.5
20220927133038 49 256 0.0 1.0 0.00 0.00 0.00 76 1016.0
20220927132537 48 310 2.0 3.0 0.00 0.00 0.00 77 1016.0
20220927132035 46 298 1.0 1.0 0.00 0.00 0.00 78 1016.0
20220927131533 46 297 0.0 0.0 0.00 0.00 0.00 80 1016.0
20220927131033 44 279 1.0 1.0 0.00 0.00 0.00 81 1015.7
20220927130532 44 281 0.0 1.0 0.00 0.00 0.00 82 1015.7
20220927130033 44 302 0.0 0.0 0.00 0.00 0.00 83 1015.7
20220927125533 43 319 0.0 0.0 0.00 0.00 0.00 84 1015.7
20220927125032 43 347 1.0 1.0 0.00 0.00 0.00 83 1015.7
20220927124531 43 327 0.0 0.0 0.00 0.00 0.00 83 1015.7
20220927124030 42 341 0.0 0.0 0.00 0.00 0.00 83 1015.7
20220927123529 43 339 0.0 1.0 0.00 0.00 0.00 83 1015.3
20220927123029 43 341 0.0 0.0 0.00 0.00 0.00 83 1015.7